TAP74A LPPT-EGPH

Flight info

Callsign TAP74A
Flight time 2h 44m
Altitude 34000
Route IXIDA DCT DIVUT DCT PINEK DCT ADVAT/M079F350 T290 GELPO DCT JABEX/N0453F350 DCT BIBLA DCT KOMAG DCT ROTEV DCT GOTNA DCT BLACA/N0412F250 P600 TUNSO
Aircraft A339/H-SADE1E2E3GHIJ3J5M1P2RWXY/LB2D1

Departure

Time 2026-04-24 09:41
Airport Lisbon Humberto Delgado Airport (LPPT)

Arrival

Time 2026-04-24 12:25
Airport Edinburgh Airport (EGPH)
Time Latitude Longitude Altitude Speed Heading
2026-04-24 09:12 38.77669 -9.13208 360 ft 0 kts 121°
2026-04-24 09:17 38.77669 -9.13207 360 ft 0 kts 121°
2026-04-24 09:29 38.77671 -9.13212 353 ft 3 kts 121°
2026-04-24 09:29 38.77684 -9.13241 362 ft 4 kts 121°
2026-04-24 09:30 38.77698 -9.13271 362 ft 4 kts 121°
2026-04-24 09:30 38.77712 -9.13301 362 ft 4 kts 121°
2026-04-24 09:30 38.77715 -9.13306 362 ft 0 kts 121°
2026-04-24 09:34 38.77707 -9.13303 360 ft 2 kts 146°
2026-04-24 09:34 38.77663 -9.13320 357 ft 12 kts 192°
2026-04-24 09:34 38.77568 -9.13315 355 ft 14 kts 175°
2026-04-24 09:34 38.77466 -9.13291 354 ft 16 kts 168°
2026-04-24 09:35 38.77338 -9.13260 361 ft 22 kts 171°
2026-04-24 09:35 38.77179 -9.13222 361 ft 24 kts 168°
2026-04-24 09:35 38.77017 -9.13178 353 ft 24 kts 168°
2026-04-24 09:35 38.76854 -9.13132 358 ft 21 kts 167°
2026-04-24 09:36 38.76777 -9.13184 360 ft 12 kts 252°
2026-04-24 09:36 38.76760 -9.13297 358 ft 13 kts 257°
2026-04-24 09:36 38.76712 -9.13411 353 ft 16 kts 221°
2026-04-24 09:36 38.76650 -9.13522 359 ft 16 kts 257°
2026-04-24 09:37 38.76627 -9.13663 359 ft 17 kts 258°
2026-04-24 09:37 38.76603 -9.13813 354 ft 17 kts 258°
2026-04-24 09:37 38.76577 -9.13968 358 ft 18 kts 256°
2026-04-24 09:37 38.76509 -9.14096 361 ft 18 kts 239°
2026-04-24 09:38 38.76518 -9.14243 354 ft 15 kts 290°
2026-04-24 09:38 38.76536 -9.14297 357 ft 4 kts 293°
2026-04-24 09:38 38.76537 -9.14298 357 ft 0 kts 293°
2026-04-24 09:38 38.76538 -9.14301 356 ft 3 kts 293°
2026-04-24 09:39 38.76569 -9.14381 356 ft 14 kts 306°
2026-04-24 09:39 38.76638 -9.14389 352 ft 10 kts 18°
2026-04-24 09:39 38.76693 -9.14362 352 ft 0 kts 23°
2026-04-24 09:40 38.76695 -9.14361 352 ft 0 kts 23°
2026-04-24 09:40 38.76704 -9.14356 354 ft 13 kts 23°
2026-04-24 09:40 38.77067 -9.14163 360 ft 98 kts 23°
2026-04-24 09:40 38.77929 -9.13706 375 ft 164 kts 22°
2026-04-24 09:41 38.79000 -9.13144 1100 ft 167 kts 21°
2026-04-24 09:41 38.80108 -9.12461 1810 ft 184 kts 30°
2026-04-24 09:41 38.81252 -9.11617 2546 ft 194 kts 27°
2026-04-24 09:41 38.82487 -9.10779 3140 ft 211 kts 26°
2026-04-24 09:42 38.83837 -9.09857 3675 ft 232 kts 27°
2026-04-24 09:42 38.85296 -9.08801 4147 ft 251 kts 29°
2026-04-24 09:42 38.86795 -9.07669 4667 ft 260 kts 30°
2026-04-24 09:42 38.88356 -9.06472 5407 ft 263 kts 30°
2026-04-24 09:43 38.89876 -9.05187 6102 ft 267 kts 37°
2026-04-24 09:43 38.91267 -9.03594 6833 ft 269 kts 42°
2026-04-24 09:43 38.92653 -9.01939 7493 ft 274 kts 41°
2026-04-24 09:43 38.94070 -9.00278 8199 ft 277 kts 41°
2026-04-24 09:44 38.95509 -8.98596 8868 ft 281 kts 41°
2026-04-24 09:44 38.96970 -8.96889 9562 ft 286 kts 42°
2026-04-24 09:44 38.98462 -8.95149 9991 ft 291 kts 42°
2026-04-24 09:44 38.99964 -8.93402 10111 ft 292 kts 42°
2026-04-24 09:45 39.01484 -8.91630 10214 ft 301 kts 42°
2026-04-24 09:45 39.03087 -8.89759 10384 ft 321 kts 42°
2026-04-24 09:45 39.04788 -8.87770 10606 ft 338 kts 42°
2026-04-24 09:45 39.06521 -8.85742 11180 ft 342 kts 42°
2026-04-24 09:46 39.08287 -8.83673 11788 ft 345 kts 42°
2026-04-24 09:46 39.10069 -8.81585 12396 ft 348 kts 41°
2026-04-24 09:46 39.11867 -8.79478 13003 ft 351 kts 42°
2026-04-24 09:46 39.13686 -8.77342 13606 ft 355 kts 42°
2026-04-24 09:47 39.15518 -8.75190 14177 ft 358 kts 42°
2026-04-24 09:47 39.17318 -8.72954 14692 ft 361 kts 47°
2026-04-24 09:47 39.18979 -8.70504 15205 ft 364 kts 49°
2026-04-24 09:47 39.20656 -8.68032 15761 ft 367 kts 49°
2026-04-24 09:48 39.22348 -8.65549 16285 ft 370 kts 49°
2026-04-24 09:48 39.24040 -8.63071 16798 ft 373 kts 49°
2026-04-24 09:48 39.25767 -8.60541 17149 ft 382 kts 49°
2026-04-24 09:48 39.27555 -8.57918 17299 ft 395 kts 49°
2026-04-24 09:49 39.29400 -8.55209 17453 ft 408 kts 49°
2026-04-24 09:49 39.30652 -8.53367 17528 ft 416 kts 49°
2026-04-24 09:49 39.32590 -8.50516 17683 ft 428 kts 49°
2026-04-24 09:49 39.34570 -8.47603 18090 ft 432 kts 49°
2026-04-24 09:50 39.36567 -8.44662 18566 ft 435 kts 49°
2026-04-24 09:50 39.38577 -8.41698 18965 ft 438 kts 49°
2026-04-24 09:50 39.41253 -8.37746 19555 ft 442 kts 49°
2026-04-24 09:50 39.42596 -8.35761 19826 ft 444 kts 50°
2026-04-24 09:51 39.44634 -8.32746 20260 ft 446 kts 50°
2026-04-24 09:51 39.46690 -8.29701 20686 ft 449 kts 50°
2026-04-24 09:51 39.48757 -8.26637 21072 ft 453 kts 50°
2026-04-24 09:51 39.50839 -8.23548 21484 ft 456 kts 50°
2026-04-24 09:52 39.52914 -8.20466 21895 ft 460 kts 50°
2026-04-24 09:52 39.55031 -8.17319 22303 ft 463 kts 50°
2026-04-24 09:52 39.57158 -8.14153 22699 ft 466 kts 50°
2026-04-24 09:52 39.59274 -8.10999 23102 ft 470 kts 50°
2026-04-24 09:53 39.61530 -8.07914 23463 ft 475 kts 43°
2026-04-24 09:53 39.64230 -8.05386 23854 ft 480 kts 31°
2026-04-24 09:53 39.67273 -8.03584 24196 ft 484 kts 19°
2026-04-24 09:53 39.70510 -8.02584 24550 ft 487 kts
2026-04-24 09:54 39.73896 -8.02405 24887 ft 489 kts 356°
2026-04-24 09:54 39.77275 -8.03078 25220 ft 491 kts 346°
2026-04-24 09:54 39.80586 -8.04241 25538 ft 494 kts 343°
2026-04-24 09:54 39.83925 -8.05392 25853 ft 497 kts 345°
2026-04-24 09:55 39.87260 -8.06378 26170 ft 499 kts 347°
2026-04-24 09:55 39.90689 -8.07254 26470 ft 502 kts 349°
2026-04-24 09:55 39.94140 -8.08057 26722 ft 505 kts 349°
2026-04-24 09:55 39.97604 -8.08829 27101 ft 503 kts 350°
2026-04-24 09:56 40.01008 -8.09579 28121 ft 488 kts 350°
2026-04-24 09:56 40.04298 -8.10303 29276 ft 473 kts 350°
2026-04-24 09:56 40.07541 -8.11022 29765 ft 474 kts 350°
2026-04-24 09:56 40.10809 -8.11748 30050 ft 478 kts 350°
2026-04-24 09:57 40.14074 -8.12477 30378 ft 480 kts 350°
2026-04-24 09:57 40.17384 -8.13216 30700 ft 482 kts 350°
2026-04-24 09:57 40.20710 -8.13961 30983 ft 485 kts 350°
2026-04-24 09:57 40.24053 -8.14710 31293 ft 488 kts 350°
2026-04-24 09:58 40.27373 -8.15454 31615 ft 490 kts 350°
2026-04-24 09:58 40.30743 -8.16210 31904 ft 493 kts 350°
2026-04-24 09:58 40.34149 -8.16975 32210 ft 496 kts 350°
2026-04-24 09:58 40.37564 -8.17739 32500 ft 498 kts 350°
2026-04-24 09:59 40.41000 -8.18509 32752 ft 500 kts 350°
2026-04-24 09:59 40.44434 -8.19281 33003 ft 502 kts 350°
2026-04-24 09:59 40.47852 -8.20051 33202 ft 504 kts 350°
2026-04-24 09:59 40.51318 -8.20835 33397 ft 506 kts 350°
2026-04-24 10:00 40.54793 -8.21623 33581 ft 508 kts 350°
2026-04-24 10:00 40.58288 -8.22416 33772 ft 508 kts 350°
2026-04-24 10:00 40.61775 -8.23208 33975 ft 508 kts 350°
2026-04-24 10:00 40.65265 -8.24001 34112 ft 509 kts 350°
2026-04-24 10:01 40.72187 -8.25576 34126 ft 507 kts 350°
2026-04-24 10:01 40.79148 -8.27163 34116 ft 508 kts 350°
2026-04-24 10:02 40.86125 -8.28756 34123 ft 508 kts 350°
2026-04-24 10:02 40.93069 -8.30345 34127 ft 509 kts 350°
2026-04-24 10:03 41.00059 -8.31949 34125 ft 508 kts 350°
2026-04-24 10:03 41.06980 -8.33940 34124 ft 509 kts 346°
2026-04-24 10:04 41.13835 -8.36188 34127 ft 509 kts 346°
2026-04-24 10:04 41.20739 -8.38443 34134 ft 510 kts 346°
2026-04-24 10:05 41.27590 -8.40690 34129 ft 510 kts 346°
2026-04-24 10:05 41.34503 -8.42963 34128 ft 511 kts 346°
2026-04-24 10:06 41.44870 -8.46383 34132 ft 511 kts 346°
2026-04-24 10:07 41.51769 -8.48665 34131 ft 511 kts 346°
2026-04-24 10:07 41.58643 -8.50943 34127 ft 511 kts 346°
2026-04-24 10:08 41.65553 -8.53238 34122 ft 512 kts 346°
2026-04-24 10:08 41.72476 -8.55543 34125 ft 512 kts 346°
2026-04-24 10:09 41.79387 -8.57850 34123 ft 512 kts 345°
2026-04-24 10:09 41.86261 -8.60145 34127 ft 512 kts 346°
2026-04-24 10:10 41.93272 -8.62034 34127 ft 513 kts 349°
2026-04-24 10:10 42.00303 -8.63795 34133 ft 513 kts 349°
2026-04-24 10:11 42.07277 -8.65609 34127 ft 513 kts 348°
2026-04-24 10:11 42.14296 -8.67468 34126 ft 514 kts 348°
2026-04-24 10:12 42.21291 -8.69325 34124 ft 514 kts 348°
2026-04-24 10:12 42.28316 -8.71195 34134 ft 514 kts 348°
2026-04-24 10:13 42.35356 -8.73074 34124 ft 514 kts 348°
2026-04-24 10:13 42.42343 -8.74941 34129 ft 515 kts 348°
2026-04-24 10:14 42.49374 -8.76825 34124 ft 515 kts 348°
2026-04-24 10:14 42.56415 -8.78715 34126 ft 516 kts 348°
2026-04-24 10:15 42.63461 -8.80612 34132 ft 516 kts 348°
2026-04-24 10:15 42.70516 -8.82515 34134 ft 516 kts 348°
2026-04-24 10:16 42.77568 -8.84422 34128 ft 517 kts 348°
2026-04-24 10:16 42.84601 -8.86329 34130 ft 517 kts 348°
2026-04-24 10:17 42.91676 -8.88249 34128 ft 518 kts 348°
2026-04-24 10:17 42.98718 -8.90167 34133 ft 518 kts 348°
2026-04-24 10:18 43.05813 -8.92104 34130 ft 519 kts 348°
2026-04-24 10:18 43.12898 -8.94044 34130 ft 519 kts 348°
2026-04-24 10:19 43.19949 -8.95976 34126 ft 520 kts 348°
2026-04-24 10:19 43.27051 -8.97926 34130 ft 520 kts 348°
2026-04-24 10:20 43.34168 -8.99888 34128 ft 520 kts 348°
2026-04-24 10:20 43.41234 -9.01840 34123 ft 521 kts 348°
2026-04-24 10:21 43.48349 -9.03810 34120 ft 521 kts 348°
2026-04-24 10:21 43.55462 -9.05784 34131 ft 521 kts 348°
2026-04-24 10:22 43.62537 -9.07752 34120 ft 521 kts 348°
2026-04-24 10:22 43.69663 -9.09739 34125 ft 522 kts 348°
2026-04-24 10:23 43.76795 -9.11734 34126 ft 522 kts 347°
2026-04-24 10:23 43.83920 -9.13730 34127 ft 522 kts 347°
2026-04-24 10:24 43.91007 -9.15721 34126 ft 522 kts 347°
2026-04-24 10:24 43.98132 -9.17728 34117 ft 523 kts 347°
2026-04-24 10:25 44.05270 -9.19743 34120 ft 523 kts 347°
2026-04-24 10:25 44.12412 -9.21764 34125 ft 523 kts 347°
2026-04-24 10:26 44.19558 -9.23791 34119 ft 523 kts 347°
2026-04-24 10:26 44.26659 -9.25811 34118 ft 523 kts 347°
2026-04-24 10:27 44.33808 -9.27849 34123 ft 523 kts 347°
2026-04-24 10:27 44.40947 -9.29890 34120 ft 524 kts 347°
2026-04-24 10:28 44.48050 -9.31925 34123 ft 524 kts 347°
2026-04-24 10:28 44.55207 -9.33980 34126 ft 524 kts 347°
2026-04-24 10:29 44.62369 -9.36043 34127 ft 524 kts 347°
2026-04-24 10:29 44.69526 -9.38110 34108 ft 528 kts 347°
2026-04-24 10:30 44.76731 -9.40195 34113 ft 528 kts 347°
2026-04-24 10:30 44.83929 -9.42283 34122 ft 528 kts 347°
2026-04-24 10:31 44.91142 -9.44381 34126 ft 528 kts 347°
2026-04-24 10:31 44.98302 -9.46439 34102 ft 528 kts 349°
2026-04-24 10:32 45.05637 -9.47011 34103 ft 528 kts
2026-04-24 10:32 45.12993 -9.47060 34101 ft 528 kts 360°
2026-04-24 10:33 45.20356 -9.47135 34106 ft 528 kts 360°
2026-04-24 10:33 45.27677 -9.47201 34099 ft 529 kts 360°
2026-04-24 10:34 45.35044 -9.47264 34120 ft 529 kts 360°
2026-04-24 10:34 45.42423 -9.47327 34112 ft 529 kts 360°
2026-04-24 10:35 45.49755 -9.47389 34102 ft 529 kts 360°
2026-04-24 10:35 45.57126 -9.47453 34110 ft 529 kts 360°
2026-04-24 10:36 45.64497 -9.47516 34108 ft 529 kts 360°
2026-04-24 10:36 45.70625 -9.47569 34109 ft 529 kts 360°
2026-04-24 10:37 45.79198 -9.47643 34110 ft 529 kts 360°
2026-04-24 10:37 45.85318 -9.47696 34114 ft 529 kts 360°
2026-04-24 10:38 45.93892 -9.47771 34115 ft 529 kts 360°
2026-04-24 10:38 46.00035 -9.47825 34106 ft 529 kts 360°
2026-04-24 10:39 46.07406 -9.47889 34099 ft 529 kts 360°
2026-04-24 10:39 46.14727 -9.47954 34107 ft 529 kts 360°
2026-04-24 10:40 46.22094 -9.48019 34102 ft 529 kts 359°
2026-04-24 10:40 46.29456 -9.48083 34110 ft 528 kts 359°
2026-04-24 10:41 46.36820 -9.48149 34101 ft 528 kts 359°
2026-04-24 10:41 46.44131 -9.48213 34108 ft 528 kts 359°
2026-04-24 10:42 46.51506 -9.48279 34107 ft 528 kts 359°
2026-04-24 10:42 46.58855 -9.48345 34107 ft 528 kts 359°
2026-04-24 10:43 46.66210 -9.48412 34105 ft 528 kts 359°
2026-04-24 10:43 46.73572 -9.48478 34111 ft 528 kts 359°
2026-04-24 10:44 46.80872 -9.48544 34108 ft 527 kts 359°
2026-04-24 10:44 46.88215 -9.48611 34106 ft 527 kts 359°
2026-04-24 10:45 46.95572 -9.48678 34106 ft 527 kts 359°
2026-04-24 10:45 47.02903 -9.48745 34110 ft 526 kts 359°
2026-04-24 10:46 47.10185 -9.48811 34104 ft 526 kts 359°
2026-04-24 10:46 47.17534 -9.48879 34110 ft 526 kts 359°
2026-04-24 10:47 47.24816 -9.48945 34102 ft 526 kts 359°
2026-04-24 10:47 47.32138 -9.49013 34107 ft 525 kts 359°
2026-04-24 10:48 47.39458 -9.49080 34106 ft 525 kts 359°
2026-04-24 10:48 47.46756 -9.49148 34108 ft 525 kts 359°
2026-04-24 10:49 47.54061 -9.49215 34103 ft 524 kts 359°
2026-04-24 10:49 47.61311 -9.49283 34106 ft 524 kts 359°
2026-04-24 10:50 47.68615 -9.49351 34105 ft 524 kts 359°
2026-04-24 10:50 47.75909 -9.49419 34110 ft 524 kts 359°
2026-04-24 10:51 47.83198 -9.49488 34102 ft 523 kts 359°
2026-04-24 10:51 47.90447 -9.49556 34107 ft 523 kts 359°
2026-04-24 10:52 47.97720 -9.49624 34108 ft 522 kts 359°
2026-04-24 10:52 48.04996 -9.49693 34110 ft 522 kts 359°
2026-04-24 10:53 48.12258 -9.49762 34104 ft 522 kts 359°
2026-04-24 10:53 48.19490 -9.49831 34106 ft 521 kts 359°
2026-04-24 10:54 48.26759 -9.49900 34100 ft 521 kts 359°
2026-04-24 10:54 48.34008 -9.49970 34111 ft 520 kts 359°
2026-04-24 10:55 48.41206 -9.50039 34107 ft 520 kts 359°
2026-04-24 10:55 48.48441 -9.50108 34107 ft 520 kts 359°
2026-04-24 10:56 48.55682 -9.50178 34108 ft 519 kts 359°
2026-04-24 10:56 48.62913 -9.50248 34110 ft 519 kts 359°
2026-04-24 10:57 48.70137 -9.50282 34109 ft 518 kts 360°
2026-04-24 10:57 48.77343 -9.50266 34113 ft 518 kts 360°
2026-04-24 10:58 48.84517 -9.50256 34111 ft 518 kts 360°
2026-04-24 10:58 48.91728 -9.50253 34105 ft 517 kts 360°
2026-04-24 10:59 48.98930 -9.50195 34106 ft 517 kts
2026-04-24 10:59 49.06038 -9.48627 34109 ft 516 kts 11°
2026-04-24 11:00 49.13069 -9.46758 34112 ft 515 kts 10°
2026-04-24 11:00 49.20139 -9.44888 34124 ft 515 kts 11°
2026-04-24 11:01 49.27201 -9.43001 34121 ft 515 kts 11°
2026-04-24 11:01 49.34259 -9.41106 34127 ft 514 kts 11°
2026-04-24 11:02 49.41322 -9.39204 34118 ft 513 kts 11°
2026-04-24 11:02 49.48307 -9.37317 34114 ft 513 kts 11°
2026-04-24 11:03 49.55343 -9.35410 34144 ft 512 kts 11°
2026-04-24 11:03 49.62367 -9.33501 34130 ft 512 kts 11°
2026-04-24 11:04 49.69354 -9.31598 34131 ft 512 kts 11°
2026-04-24 11:04 49.76397 -9.29673 34148 ft 513 kts 11°
2026-04-24 11:05 49.83442 -9.27741 34150 ft 513 kts 11°
2026-04-24 11:05 49.90444 -9.25816 34156 ft 513 kts 11°
2026-04-24 11:06 49.97492 -9.23873 34161 ft 513 kts 11°
2026-04-24 11:06 50.04537 -9.21925 34166 ft 513 kts 11°
2026-04-24 11:07 50.15038 -9.19009 34163 ft 513 kts 11°
2026-04-24 11:07 50.22075 -9.17049 34167 ft 512 kts 11°
2026-04-24 11:08 50.29098 -9.15087 34167 ft 512 kts 11°
2026-04-24 11:08 50.36112 -9.13120 34172 ft 511 kts 11°
2026-04-24 11:09 50.43081 -9.11161 34174 ft 511 kts 11°
2026-04-24 11:09 50.50078 -9.09188 34182 ft 510 kts 11°
2026-04-24 11:10 50.57075 -9.07209 34182 ft 510 kts 11°
2026-04-24 11:10 50.64063 -9.05227 34184 ft 509 kts 11°
2026-04-24 11:11 50.70996 -9.03254 34181 ft 508 kts 10°
2026-04-24 11:11 50.77958 -9.01267 34189 ft 507 kts 10°
2026-04-24 11:12 50.84919 -8.99275 34191 ft 507 kts 10°
2026-04-24 11:12 50.91820 -8.97293 34198 ft 506 kts 10°
2026-04-24 11:13 50.98747 -8.95298 34198 ft 505 kts 10°
2026-04-24 11:13 51.05654 -8.93303 34203 ft 504 kts 10°
2026-04-24 11:14 51.12554 -8.91289 34200 ft 503 kts 12°
2026-04-24 11:14 51.19210 -8.88201 34199 ft 501 kts 18°
2026-04-24 11:15 51.25877 -8.84915 34204 ft 501 kts 18°
2026-04-24 11:15 51.32540 -8.81629 34203 ft 500 kts 18°
2026-04-24 11:16 51.39188 -8.78326 34201 ft 500 kts 18°
2026-04-24 11:16 51.45835 -8.75010 34204 ft 499 kts 18°
2026-04-24 11:17 51.52438 -8.71706 34203 ft 499 kts 18°
2026-04-24 11:17 51.59072 -8.68375 34205 ft 499 kts 18°
2026-04-24 11:18 51.65709 -8.65034 34207 ft 499 kts 18°
2026-04-24 11:18 51.72229 -8.61326 34208 ft 498 kts 26°
2026-04-24 11:19 51.78199 -8.55709 34210 ft 496 kts 34°
2026-04-24 11:19 51.84012 -8.49648 34212 ft 496 kts 34°
2026-04-24 11:20 51.89797 -8.43633 34209 ft 496 kts 34°
2026-04-24 11:20 51.95607 -8.37548 34211 ft 496 kts 34°
2026-04-24 11:21 52.01368 -8.31483 34217 ft 495 kts 34°
2026-04-24 11:21 52.07156 -8.25373 34220 ft 495 kts 34°
2026-04-24 11:22 52.12945 -8.19240 34234 ft 496 kts 34°
2026-04-24 11:22 52.18683 -8.13143 34241 ft 494 kts 34°
2026-04-24 11:23 52.24452 -8.06995 34248 ft 496 kts 34°
2026-04-24 11:23 52.29246 -8.01872 34253 ft 494 kts 34°
2026-04-24 11:24 52.34982 -7.95722 34255 ft 493 kts 34°
2026-04-24 11:24 52.40728 -7.89541 34259 ft 493 kts 34°
2026-04-24 11:25 52.46460 -7.83358 34262 ft 492 kts 34°
2026-04-24 11:25 52.52182 -7.77164 34266 ft 491 kts 34°
2026-04-24 11:26 52.57892 -7.70967 34264 ft 491 kts 34°
2026-04-24 11:26 52.63565 -7.64791 34272 ft 491 kts 34°
2026-04-24 11:27 52.69260 -7.58569 34272 ft 491 kts 34°
2026-04-24 11:27 52.74949 -7.52333 34270 ft 491 kts 34°
2026-04-24 11:28 52.80630 -7.46088 34057 ft 487 kts 34°
2026-04-24 11:28 52.83454 -7.42975 33882 ft 489 kts 34°
2026-04-24 11:28 52.86301 -7.39831 33979 ft 492 kts 34°
2026-04-24 11:29 52.89145 -7.36686 34201 ft 492 kts 34°
2026-04-24 11:29 52.91959 -7.33570 34273 ft 492 kts 34°
2026-04-24 11:29 52.97644 -7.27257 34271 ft 490 kts 34°
2026-04-24 11:30 53.03281 -7.20979 34277 ft 489 kts 34°
2026-04-24 11:30 53.08941 -7.14662 34277 ft 488 kts 34°
2026-04-24 11:31 53.14557 -7.08370 34274 ft 488 kts 34°
2026-04-24 11:31 53.20163 -7.02063 34277 ft 487 kts 34°
2026-04-24 11:32 53.25773 -6.95736 34280 ft 486 kts 34°
2026-04-24 11:32 53.31380 -6.89390 34285 ft 485 kts 34°
2026-04-24 11:33 53.36973 -6.83038 34288 ft 486 kts 34°
2026-04-24 11:33 53.42549 -6.76688 34293 ft 487 kts 34°
2026-04-24 11:34 53.48154 -6.70281 34293 ft 486 kts 34°
2026-04-24 11:34 53.53751 -6.63867 34230 ft 485 kts 34°
2026-04-24 11:35 53.56484 -6.60729 33870 ft 480 kts 34°
2026-04-24 11:35 53.59228 -6.57574 33334 ft 474 kts 34°
2026-04-24 11:35 53.61953 -6.54432 32526 ft 474 kts 34°
2026-04-24 11:35 53.64682 -6.51278 31584 ft 475 kts 34°
2026-04-24 11:36 53.67409 -6.48121 30852 ft 473 kts 34°
2026-04-24 11:36 53.70102 -6.45000 30250 ft 467 kts 34°
2026-04-24 11:36 53.72771 -6.41905 29627 ft 461 kts 34°
2026-04-24 11:36 53.75398 -6.38855 29001 ft 455 kts 35°
2026-04-24 11:37 53.78001 -6.35829 28371 ft 450 kts 35°
2026-04-24 11:37 53.80565 -6.32843 27758 ft 445 kts 35°
2026-04-24 11:37 53.83063 -6.29926 27179 ft 439 kts 36°
2026-04-24 11:37 53.85569 -6.27002 26581 ft 434 kts 36°
2026-04-24 11:38 53.88048 -6.24106 26010 ft 429 kts 36°
2026-04-24 11:38 53.90494 -6.21239 25418 ft 424 kts 36°
2026-04-24 11:38 53.92919 -6.18389 24811 ft 420 kts 36°
2026-04-24 11:38 53.95308 -6.15578 24215 ft 416 kts 36°
2026-04-24 11:39 53.97650 -6.12820 23627 ft 412 kts 36°
2026-04-24 11:39 53.99994 -6.10059 23381 ft 408 kts 36°
2026-04-24 11:39 54.02349 -6.07297 23336 ft 413 kts 34°
2026-04-24 11:39 54.04885 -6.04930 23342 ft 415 kts 27°
2026-04-24 11:40 54.07496 -6.02831 23340 ft 415 kts 26°
2026-04-24 11:40 54.10079 -6.00747 23339 ft 415 kts 26°
2026-04-24 11:40 54.12691 -5.98627 23339 ft 415 kts 27°
2026-04-24 11:40 54.15302 -5.96491 23344 ft 415 kts 27°
2026-04-24 11:41 54.17906 -5.94353 23345 ft 415 kts 27°
2026-04-24 11:41 54.20478 -5.92238 23344 ft 415 kts 27°
2026-04-24 11:41 54.23080 -5.90097 23339 ft 415 kts 27°
2026-04-24 11:41 54.25685 -5.87953 23342 ft 415 kts 27°
2026-04-24 11:42 54.28289 -5.85805 23344 ft 415 kts 27°
2026-04-24 11:42 54.30889 -5.83657 23346 ft 415 kts 27°
2026-04-24 11:42 54.33462 -5.81529 23344 ft 415 kts 27°
2026-04-24 11:42 54.36065 -5.79371 23349 ft 415 kts 27°
2026-04-24 11:43 54.38670 -5.77209 23347 ft 415 kts 27°
2026-04-24 11:43 54.41275 -5.75044 23347 ft 415 kts 27°
2026-04-24 11:43 54.43873 -5.72877 23349 ft 415 kts 27°
2026-04-24 11:43 54.46470 -5.70711 23351 ft 415 kts 27°
2026-04-24 11:44 54.49072 -5.68539 23349 ft 415 kts 27°
2026-04-24 11:44 54.51673 -5.66364 23350 ft 415 kts 27°
2026-04-24 11:44 54.54248 -5.64209 23347 ft 415 kts 27°
2026-04-24 11:44 54.56852 -5.62026 23351 ft 415 kts 27°
2026-04-24 11:45 54.59363 -5.59552 23348 ft 415 kts 34°
2026-04-24 11:45 54.61642 -5.56596 23349 ft 414 kts 41°
2026-04-24 11:45 54.63794 -5.53288 23351 ft 414 kts 42°
2026-04-24 11:45 54.65954 -5.50001 23310 ft 412 kts 42°
2026-04-24 11:46 54.68107 -5.46748 22915 ft 410 kts 42°
2026-04-24 11:46 54.70251 -5.43506 22324 ft 408 kts 42°
2026-04-24 11:46 54.72379 -5.40282 21663 ft 404 kts 42°
2026-04-24 11:46 54.74491 -5.37075 20931 ft 402 kts 42°
2026-04-24 11:47 54.76582 -5.33890 20208 ft 399 kts 42°
2026-04-24 11:47 54.78633 -5.30759 19499 ft 396 kts 42°
2026-04-24 11:47 54.80685 -5.27621 18812 ft 392 kts 42°
2026-04-24 11:47 54.82728 -5.24494 18055 ft 389 kts 42°
2026-04-24 11:48 54.84742 -5.21406 17532 ft 381 kts 42°
2026-04-24 11:48 54.86735 -5.18351 17365 ft 385 kts 41°
2026-04-24 11:48 54.88887 -5.15558 17350 ft 386 kts 33°
2026-04-24 11:48 54.91246 -5.13332 17349 ft 386 kts 26°
2026-04-24 11:49 54.93662 -5.11294 17344 ft 386 kts 26°
2026-04-24 11:49 54.96067 -5.09226 17342 ft 386 kts 26°
2026-04-24 11:49 54.98474 -5.07140 17343 ft 386 kts 26°
2026-04-24 11:49 55.00872 -5.05055 17344 ft 385 kts 26°
2026-04-24 11:50 55.03273 -5.02967 17343 ft 386 kts 26°
2026-04-24 11:50 55.05644 -5.00904 17342 ft 386 kts 26°
2026-04-24 11:50 55.08074 -4.98784 17341 ft 385 kts 27°
2026-04-24 11:50 55.10273 -4.96144 17345 ft 386 kts 43°
2026-04-24 11:51 55.11955 -4.92590 17338 ft 386 kts 58°
2026-04-24 11:51 55.13104 -4.88366 17342 ft 386 kts 67°
2026-04-24 11:51 55.14149 -4.84035 17329 ft 385 kts 67°
2026-04-24 11:51 55.15198 -4.79738 16983 ft 382 kts 66°
2026-04-24 11:52 55.16249 -4.75475 16423 ft 380 kts 66°
2026-04-24 11:52 55.17296 -4.71240 15744 ft 377 kts 66°
2026-04-24 11:52 55.18337 -4.67036 15029 ft 374 kts 66°
2026-04-24 11:52 55.19366 -4.62874 14349 ft 371 kts 66°
2026-04-24 11:53 55.20370 -4.58800 13627 ft 368 kts 66°
2026-04-24 11:53 55.21381 -4.54685 12915 ft 363 kts 66°
2026-04-24 11:53 55.22374 -4.50638 12203 ft 359 kts 66°
2026-04-24 11:53 55.23360 -4.46617 11522 ft 356 kts 66°
2026-04-24 11:54 55.24329 -4.42654 10842 ft 352 kts 66°
2026-04-24 11:54 55.25266 -4.38816 10488 ft 339 kts 66°
2026-04-24 11:54 55.26169 -4.35113 10359 ft 319 kts 66°
2026-04-24 11:54 55.27011 -4.31660 10329 ft 297 kts 66°
2026-04-24 11:55 55.27807 -4.28375 10329 ft 295 kts 66°
2026-04-24 11:55 55.28613 -4.25043 10330 ft 294 kts 66°
2026-04-24 11:55 55.29413 -4.21737 10328 ft 294 kts 66°
2026-04-24 11:55 55.30214 -4.18430 10328 ft 294 kts 66°
2026-04-24 11:56 55.31006 -4.15160 10327 ft 295 kts 66°
2026-04-24 11:56 55.31806 -4.11847 10328 ft 294 kts 66°
2026-04-24 11:56 55.32598 -4.08555 10322 ft 294 kts 66°
2026-04-24 11:56 55.33395 -4.05235 10325 ft 295 kts 66°
2026-04-24 11:57 55.34189 -4.01924 10323 ft 294 kts 66°
2026-04-24 11:57 55.34985 -3.98598 10324 ft 294 kts 66°
2026-04-24 11:57 55.35780 -3.95277 10314 ft 294 kts 66°
2026-04-24 11:57 55.36577 -3.91957 10318 ft 295 kts 66°
2026-04-24 11:58 55.37368 -3.88638 10319 ft 295 kts 67°
2026-04-24 11:58 55.38160 -3.85308 10314 ft 293 kts 67°
2026-04-24 11:58 55.38945 -3.82002 10053 ft 292 kts 67°
2026-04-24 11:58 55.39715 -3.78755 9618 ft 290 kts 67°
2026-04-24 11:59 55.40488 -3.75487 9056 ft 288 kts 67°
2026-04-24 11:59 55.41252 -3.72252 8552 ft 283 kts 67°
2026-04-24 11:59 55.42008 -3.69051 8366 ft 287 kts 67°
2026-04-24 11:59 55.42771 -3.65810 8318 ft 285 kts 67°
2026-04-24 12:00 55.43532 -3.62581 8313 ft 286 kts 67°
2026-04-24 12:00 55.44294 -3.59344 8314 ft 287 kts 67°
2026-04-24 12:00 55.45052 -3.56102 8317 ft 286 kts 67°
2026-04-24 12:00 55.45809 -3.52857 8318 ft 287 kts 67°
2026-04-24 12:01 55.46569 -3.49606 8315 ft 286 kts 67°
2026-04-24 12:01 55.47320 -3.46391 8255 ft 280 kts 67°
2026-04-24 12:01 55.48042 -3.43315 8169 ft 268 kts 67°
2026-04-24 12:01 55.48733 -3.40368 8053 ft 252 kts 67°
2026-04-24 12:02 55.49383 -3.37585 7864 ft 240 kts 67°
2026-04-24 12:02 55.50267 -3.35130 7446 ft 238 kts 42°
2026-04-24 12:02 55.51655 -3.33622 7096 ft 233 kts 22°
2026-04-24 12:02 55.53139 -3.32449 6721 ft 233 kts 22°
2026-04-24 12:03 55.54593 -3.31275 6362 ft 232 kts 24°
2026-04-24 12:03 55.56049 -3.30056 6063 ft 228 kts 24°
2026-04-24 12:03 55.57491 -3.28815 5983 ft 233 kts 24°
2026-04-24 12:03 55.58941 -3.27559 5969 ft 230 kts 25°
2026-04-24 12:04 55.60382 -3.26316 5968 ft 230 kts 24°
2026-04-24 12:04 55.61832 -3.25062 5971 ft 232 kts 25°
2026-04-24 12:04 55.63258 -3.23803 5971 ft 231 kts 25°
2026-04-24 12:04 55.64704 -3.22535 5979 ft 231 kts 24°
2026-04-24 12:05 55.66150 -3.21308 5867 ft 229 kts 24°
2026-04-24 12:05 55.67577 -3.20080 5578 ft 229 kts 24°
2026-04-24 12:05 55.69008 -3.18840 5276 ft 228 kts 24°
2026-04-24 12:05 55.70407 -3.17616 5025 ft 224 kts 24°
2026-04-24 12:06 55.71809 -3.16404 4989 ft 227 kts 24°
2026-04-24 12:06 55.73238 -3.15161 4986 ft 227 kts 24°
2026-04-24 12:06 55.74656 -3.13930 4990 ft 227 kts 24°
2026-04-24 12:06 55.76079 -3.12700 4997 ft 228 kts 24°
2026-04-24 12:07 55.77504 -3.11466 4925 ft 226 kts 24°
2026-04-24 12:07 55.78915 -3.10261 4665 ft 224 kts 23°
2026-04-24 12:07 55.80309 -3.09071 4316 ft 225 kts 24°
2026-04-24 12:07 55.81706 -3.07827 4046 ft 222 kts 26°
2026-04-24 12:08 55.83076 -3.06606 4015 ft 227 kts 24°
2026-04-24 12:08 55.84487 -3.05320 3997 ft 224 kts 29°
2026-04-24 12:08 55.85733 -3.03666 3993 ft 226 kts 48°
2026-04-24 12:08 55.86563 -3.01290 3995 ft 229 kts 59°
2026-04-24 12:09 55.87296 -2.98803 3956 ft 228 kts 70°
2026-04-24 12:09 55.87443 -2.96017 4021 ft 239 kts 99°
2026-04-24 12:09 55.86788 -2.93134 4000 ft 259 kts 122°
2026-04-24 12:09 55.85469 -2.90824 4139 ft 279 kts 151°
2026-04-24 12:10 55.83575 -2.89761 4459 ft 297 kts 177°
2026-04-24 12:10 55.81478 -2.90259 4772 ft 313 kts 200°
2026-04-24 12:10 55.80201 -2.91419 5285 ft 309 kts 217°
2026-04-24 12:11 55.77982 -2.96975 5944 ft 267 kts 249°
2026-04-24 12:11 55.77330 -3.00053 5981 ft 263 kts 251°
2026-04-24 12:11 55.76724 -3.03006 5993 ft 243 kts 251°
2026-04-24 12:11 55.76146 -3.05711 5985 ft 230 kts 250°
2026-04-24 12:12 55.75533 -3.08412 5991 ft 235 kts 249°
2026-04-24 12:12 55.74690 -3.11945 5987 ft 234 kts 248°
2026-04-24 12:12 55.74262 -3.13706 5986 ft 234 kts 248°
2026-04-24 12:12 55.73618 -3.16363 5987 ft 234 kts 248°
2026-04-24 12:13 55.72972 -3.19031 5983 ft 235 kts 248°
2026-04-24 12:13 55.72335 -3.21635 5988 ft 235 kts 248°
2026-04-24 12:13 55.71695 -3.24265 5990 ft 235 kts 248°
2026-04-24 12:13 55.71046 -3.26924 5974 ft 233 kts 248°
2026-04-24 12:14 55.70400 -3.29572 5988 ft 236 kts 248°
2026-04-24 12:14 55.69749 -3.32244 5987 ft 234 kts 247°
2026-04-24 12:14 55.69086 -3.34958 5982 ft 253 kts 248°
2026-04-24 12:14 55.68364 -3.37937 5982 ft 266 kts 248°
2026-04-24 12:15 55.67634 -3.40921 5978 ft 267 kts 247°
2026-04-24 12:15 55.66892 -3.43944 5975 ft 267 kts 247°
2026-04-24 12:15 55.66151 -3.46982 5976 ft 267 kts 247°
2026-04-24 12:15 55.65428 -3.49979 5974 ft 267 kts 247°
2026-04-24 12:16 55.64780 -3.53050 5965 ft 267 kts 259°
2026-04-24 12:16 55.64812 -3.56318 5986 ft 267 kts 284°
2026-04-24 12:16 55.65645 -3.59236 5970 ft 268 kts 310°
2026-04-24 12:16 55.67032 -3.61447 5955 ft 267 kts 321°
2026-04-24 12:17 55.68516 -3.63385 5705 ft 264 kts 323°
2026-04-24 12:17 55.70002 -3.65312 5200 ft 263 kts 322°
2026-04-24 12:17 55.71442 -3.67305 4636 ft 261 kts 320°
2026-04-24 12:17 55.72837 -3.69328 4169 ft 257 kts 319°
2026-04-24 12:18 55.74206 -3.71411 4026 ft 262 kts 318°
2026-04-24 12:18 55.75565 -3.73492 3966 ft 258 kts 318°
2026-04-24 12:18 55.76920 -3.75543 3984 ft 243 kts 319°
2026-04-24 12:18 55.78309 -3.76943 3983 ft 226 kts 343°
2026-04-24 12:19 55.79836 -3.77018 3963 ft 215 kts 13°
2026-04-24 12:19 55.81129 -3.75946 3985 ft 198 kts 34°
2026-04-24 12:19 55.82151 -3.74361 3973 ft 192 kts 47°
2026-04-24 12:19 55.82973 -3.72479 3990 ft 194 kts 54°
2026-04-24 12:20 55.83711 -3.70468 3995 ft 196 kts 57°
2026-04-24 12:20 55.84418 -3.68412 3958 ft 197 kts 58°
2026-04-24 12:20 55.85126 -3.66329 3734 ft 195 kts 58°
2026-04-24 12:20 55.85821 -3.64250 3499 ft 196 kts 57°
2026-04-24 12:21 55.86559 -3.62152 3207 ft 203 kts 57°
2026-04-24 12:21 55.87294 -3.59959 2930 ft 209 kts 59°
2026-04-24 12:21 55.88044 -3.57765 2646 ft 210 kts 58°
2026-04-24 12:21 55.88787 -3.55569 2377 ft 202 kts 58°
2026-04-24 12:22 55.89508 -3.53463 2114 ft 195 kts 59°
2026-04-24 12:22 55.90190 -3.51434 1833 ft 186 kts 58°
2026-04-24 12:22 55.90833 -3.49538 1590 ft 171 kts 59°
2026-04-24 12:22 55.91423 -3.47807 1364 ft 155 kts 58°
2026-04-24 12:23 55.91946 -3.46259 1165 ft 142 kts 59°
2026-04-24 12:23 55.92461 -3.44745 955 ft 139 kts 58°
2026-04-24 12:23 55.92956 -3.43281 782 ft 141 kts 58°
2026-04-24 12:23 55.93451 -3.41808 582 ft 135 kts 58°
2026-04-24 12:24 55.93942 -3.40345 380 ft 140 kts 59°
2026-04-24 12:24 55.94439 -3.38915 209 ft 135 kts 58°
2026-04-24 12:24 55.94900 -3.37553 119 ft 113 kts 58°
2026-04-24 12:24 55.95215 -3.36626 115 ft 67 kts 58°
2026-04-24 12:25 55.95416 -3.36034 110 ft 30 kts 59°
2026-04-24 12:25 55.95518 -3.35722 112 ft 28 kts 58°
2026-04-24 12:25 55.95548 -3.35514 113 ft 14 kts 122°
2026-04-24 12:25 55.95468 -3.35415 112 ft 13 kts 154°
2026-04-24 12:26 55.95419 -3.35455 112 ft 7 kts 223°
2026-04-24 12:26 55.95388 -3.35535 112 ft 9 kts 237°
2026-04-24 12:26 55.95350 -3.35644 111 ft 13 kts 238°
2026-04-24 12:26 55.95297 -3.35797 112 ft 16 kts 239°
2026-04-24 12:27 55.95242 -3.35955 111 ft 12 kts 230°
2026-04-24 12:27 55.95174 -3.35948 111 ft 10 kts 156°
2026-04-24 12:27 55.95121 -3.35870 113 ft 10 kts 122°
2026-04-24 12:27 55.95067 -3.35795 113 ft 11 kts 180°
2026-04-24 12:28 55.94984 -3.35856 111 ft 14 kts 194°
2026-04-24 12:28 55.94935 -3.35830 109 ft 0 kts 141°
2026-04-24 12:28 55.94926 -3.35828 110 ft 5 kts 160°
2026-04-24 12:28 55.94878 -3.35850 108 ft 8 kts 202°
2026-04-24 12:29 55.94858 -3.35871 107 ft 0 kts 211°